Location: Unspecified
(0.0000°N, 0.0000°E)
Time: 02:29:33
(UTC+00:00)

Explorer 11/Cluster Stage 4 - Pass Details

Date: 22 December 2018
Orbit: 467 x 1260 km, 28.8° (Epoch: 17 January)

Event Time Altitude Azimuth Distance (km) Brightness Sun altitude
Rises 20:38:01 0° 272° (W) 4,196 11.0 -36.0°
Reaches altitude 10° 20:41:56 10° 288° (WNW) 3,190 10.1 -36.8°
Enters shadow 20:46:15 19° 319° (NW) 2,467 9.1 -37.8°
